Weather History for Cape Girardeau, MO

Change the Weather History Date:

Friday, January 31, 2014

  Actual Average Record
Temperature  
Mean Temperature 32 °F 34 °F  
Max Temperature 42 °F 44 °F 66 °F (1993)
Min Temperature 22 °F 25 °F -8 °F (1965)
Degree Days  
Heating Degree Days 33 31  
Month to date heating degree days 1117 986  
Since 1 July heating degree days 2984 2738  
Cooling Degree Days 0 0  
Month to date cooling degree days 0 0  
Year to date cooling degree days 0 0  
Moisture  
Dew Point 28 °F    
Average Humidity 69    
Maximum Humidity 100    
Minimum Humidity 37    
Precipitation  
Precipitation 0.01 in 0.13 in 1.89 in (2002)
Month to date precipitation 2.00 3.47  
Year to date precipitation 2.00 3.47  
Sea Level Pressure  
Sea Level Pressure 30.03 in    
Wind  
Wind Speed 5 mph (ESE)    
Max Wind Speed 14 mph    
Max Gust Speed 17 mph    
Visibility 5 miles    
Events      
T = Trace of Precipitation, MM = Missing Value Source: NWS Daily Summary

Daily Weather History Graph

Daily Weather History Graph

Search for Another Location

Airport:

Trip Planner

Search our weather history database for the weather conditions in past years. The results will help you decide how hot, cold, wet, or windy it might be!

Date:

Astronomy

Jan. 31, 2014 Rise Set
Actual Time 7:02 AM CST 5:21 PM CST
Civil Twilight 6:34 AM CST 5:49 PM CST
Nautical Twilight 6:03 AM CST 6:20 PM CST
Astronomical Twilight 5:32 AM CST 6:51 PM CST
Moon 7:14 AM CST (1/31) 6:43 PM CST (1/31)
Length of Visible Light 11h 14m
Length of Day
10h 19m
New Moon, 1% of the Moon is Illuminated
Jan 31
New Moon
Feb 6
First Quarter
Feb 14
Full
Feb 22
Last Quarter
Mar 1
New

Hourly Weather History & Observations

Time (CST) Temp. Windchill Dew Point Humidity Pressure Visibility Wind Dir Wind Speed Gust Speed Precip Events Conditions
12:53 AM 28.0 °F 22.8 °F 14.0 °F 56% 30.02 in 10.0 mi ESE 4.6 mph - N/A   Clear
1:53 AM 30.0 °F 23.2 °F 14.0 °F 51% 30.03 in 10.0 mi SSE 6.9 mph - N/A   Clear
2:53 AM 30.9 °F 27.5 °F 12.9 °F 47% 30.04 in 10.0 mi SSW 3.5 mph - N/A   Clear
3:53 AM 30.0 °F 26.5 °F 12.9 °F 49% 30.05 in 10.0 mi South 3.5 mph - N/A   Clear
4:53 AM 26.1 °F 21.9 °F 15.1 °F 63% 30.05 in 10.0 mi SE 3.5 mph - N/A   Clear
5:53 AM 24.1 °F 19.7 °F 16.0 °F 71% 30.06 in 10.0 mi SE 3.5 mph - N/A   Clear
6:53 AM 21.9 °F - 15.1 °F 75% 30.07 in 10.0 mi Calm Calm - N/A   Clear
7:53 AM 26.1 °F - 16.0 °F 66% 30.09 in 10.0 mi Calm Calm - N/A   Mostly Cloudy
8:53 AM 34.0 °F 29.8 °F 16.0 °F 48% 30.09 in 10.0 mi NE 4.6 mph - N/A   Mostly Cloudy
9:53 AM 37.0 °F 34.5 °F 17.1 °F 44% 30.10 in 10.0 mi ESE 3.5 mph - N/A   Overcast
10:53 AM 39.9 °F 35.1 °F 15.1 °F 36% 30.09 in 10.0 mi SE 6.9 mph - N/A   Overcast
11:53 AM 39.9 °F 35.1 °F 18.0 °F 41% 30.07 in 10.0 mi SSE 6.9 mph - N/A   Overcast
12:53 PM 41.0 °F 38.0 °F 19.0 °F 41% 30.05 in 10.0 mi East 4.6 mph - N/A   Overcast
1:25 PM 42.1 °F 38.4 °F 19.9 °F 41% 30.02 in 10.0 mi ESE 5.8 mph - N/A   Overcast
1:53 PM 41.0 °F 35.8 °F 27.0 °F 57% 30.03 in 10.0 mi SSE 8.1 mph - N/A   Overcast
2:53 PM 37.0 °F 32.4 °F 35.1 °F 93% 30.03 in 2.0 mi SE 5.8 mph - 0.00 in   Overcast
3:00 PM 37.0 °F 32.4 °F 35.1 °F 93% 30.02 in 1.8 mi SE 5.8 mph - 0.00 in   Overcast
3:11 PM 37.0 °F 32.4 °F 35.1 °F 93% 30.02 in 2.0 mi SE 5.8 mph - 0.00 in   Overcast
3:20 PM 37.0 °F 31.6 °F 35.1 °F 93% 30.02 in 1.5 mi SE 6.9 mph - 0.00 in   Overcast
3:28 PM 36.0 °F 29.0 °F 34.0 °F 93% 30.02 in 1.2 mi ESE 9.2 mph - 0.01 in   Overcast
3:53 PM 35.1 °F 28.6 °F 34.0 °F 96% 30.03 in 1.5 mi ESE 8.1 mph - 0.01 in   Overcast
4:51 PM 35.6 °F 30.7 °F 33.8 °F 93% 30.02 in 1.2 mi East 5.8 mph - N/A   Overcast
4:53 PM 35.1 °F 31.0 °F 34.0 °F 96% 30.03 in 1.2 mi East 4.6 mph - N/A   Overcast
5:17 PM 35.1 °F 30.1 °F 34.0 °F 96% 30.02 in 2.5 mi ESE 5.8 mph - N/A   Overcast
5:53 PM 35.1 °F 30.1 °F 34.0 °F 96% 30.03 in 2.5 mi East 5.8 mph - N/A   Overcast
6:37 PM 36.0 °F 28.5 °F 34.0 °F 93% 30.00 in 3.0 mi ESE 10.4 mph - N/A   Overcast
6:53 PM 36.0 °F 30.3 °F 35.1 °F 97% 30.02 in 4.0 mi ESE 6.9 mph - N/A   Overcast
7:33 PM 36.0 °F 31.1 °F 35.1 °F 97% 30.01 in 3.0 mi East 5.8 mph - N/A   Overcast
7:53 PM 37.0 °F 34.5 °F 36.0 °F 96% 30.01 in 2.5 mi ENE 3.5 mph - N/A   Overcast
8:14 PM 37.0 °F 33.3 °F 35.1 °F 93% 30.00 in 3.0 mi East 4.6 mph - N/A   Overcast
8:24 PM 37.0 °F 34.5 °F 35.1 °F 93% 30.01 in 3.0 mi NE 3.5 mph - N/A   Overcast
8:31 PM 37.0 °F 32.4 °F 35.1 °F 93% 30.00 in 2.5 mi East 5.8 mph - N/A   Overcast
8:53 PM 36.0 °F 31.1 °F 35.1 °F 97% 29.99 in 2.0 mi East 5.8 mph - N/A   Overcast
9:14 PM 37.0 °F 34.5 °F 36.0 °F 96% 29.99 in 3.0 mi NE 3.5 mph - N/A   Overcast
9:53 PM 37.0 °F 34.5 °F 36.0 °F 96% 29.97 in 3.0 mi East 3.5 mph - N/A   Overcast
10:53 PM 37.0 °F 34.5 °F 36.0 °F 96% 29.98 in 3.0 mi NNE 3.5 mph - N/A   Overcast
11:23 PM 37.0 °F 33.3 °F 36.0 °F 96% 29.97 in 3.0 mi ENE 4.6 mph - N/A   Overcast
11:53 PM 37.0 °F 33.3 °F 36.0 °F 96% 29.97 in 3.0 mi ENE 4.6 mph - N/A   Overcast